This is the latest recevied weather packets stored in our database for station/object K4GDX. If no packets are shown the sender has not sent any weather packets the latest 10 day(s).
| Time | Temp. | Humidity | Pressure | Rain* | Wind** | Luminosity | Snow |
|---|---|---|---|---|---|---|---|
| 1777492112 | 32.78° C | 51% | 1010.9 hPa | 0 mm | - | 229 W/m² | - |
| 1777491812 | 32.78° C | 51% | 1010.9 hPa | 0 mm | - | 812 W/m² | - |
| 1777491511 | 32.78° C | 49% | 1011 hPa | 0 mm | - | 886 W/m² | - |
| 1777491210 | 32.22° C | 53% | 1011.1 hPa | 0 mm | - | 877 W/m² | - |
| 1777490912 | 31.67° C | 51% | 1011.2 hPa | 0 mm | - | 204 W/m² | - |
| 1777490611 | 31.67° C | 52% | 1011.2 hPa | 0 mm | - | 911 W/m² | - |
| 1777490313 | 31.67° C | 52% | 1011.4 hPa | 0 mm | - | 181 W/m² | - |
| 1777490007 | 31.67° C | 56% | 1011.4 hPa | 0 mm | - | 916 W/m² | - |
| 1777489708 | 31.11° C | 56% | 1011.6 hPa | 0 mm | - | 234 W/m² | - |
| 1777489412 | 31.67° C | 56% | 1011.6 hPa | 0 mm | - | 954 W/m² | - |
| 1777489107 | 31.11° C | 57% | 1011.7 hPa | 0 mm | - | 976 W/m² | - |
| 1777488806 | 31.11° C | 57% | 1011.8 hPa | 0 mm | - | 976 W/m² | - |
| 1777488507 | 31.67° C | 56% | 1012 hPa | 0 mm | - | 281 W/m² | - |
| 1777488208 | 31.67° C | 59% | 1012.1 hPa | 0 mm | - | 244 W/m² | - |
| 1777487904 | 31.11° C | 61% | 1012.3 hPa | 0 mm | - | 1048 W/m² | - |
| 1777487603 | 30.56° C | 60% | 1012.3 hPa | 0 mm | - | 1092 W/m² | - |
| 1777487304 | 30.56° C | 61% | 1012.3 hPa | 0 mm | - | 418 W/m² | - |
| 1777487001 | 30.56° C | 60% | 1012.3 hPa | 0 mm | - | 396 W/m² | - |
| 1777486695 | 30.56° C | 61% | 1012.3 hPa | 0 mm | - | 338 W/m² | - |
| 1777486398 | 30.56° C | 60% | 1012.5 hPa | 0 mm | - | 357 W/m² | - |
| 1777486087 | 30.56° C | 59% | 1012.6 hPa | 0 mm | - | 399 W/m² | - |
| 1777485787 | 30.56° C | 60% | 1012.7 hPa | 0 mm | - | 346 W/m² | - |
| 1777485464 | 30.56° C | 60% | 1012.9 hPa | 0 mm | - | 360 W/m² | - |
| 1777485164 | 30.56° C | 58% | 1013 hPa | 0 mm | - | 404 W/m² | - |
| 1777484864 | 30.56° C | 61% | 1013.1 hPa | 0 mm | - | 619 W/m² | - |
* Rain latest hour (hover to see other rain measurements)
** Current wind speed in m/s (hover to see current wind gust speed)